• In Uzbekistan
  • List of Countries
  • For 7 days
  • Water Temperature
  • Satellite Maps
  • Weather Map
  • Weather Widgets
  • user-avatar
    Login

    Hourly Weather Valencia

    Today, 22 April, Monday

    Time Temperature Precipitation Wind Pressure Humidity
    00:00 +25°C° 0.1 mm 3 mps 717 mmHg 93%
    01:00 +24°C° 0.1 mm 3 mps 717 mmHg 93%
    02:00 +24°C° 0.1 mm 2 mps 717 mmHg 93%
    03:00 +24°C° 0.1 mm 2 mps 717 mmHg 94%
    04:00 +24°C° 0.1 mm 2 mps 716 mmHg 94%
    05:00 +24°C° 0.2 mm 2 mps 717 mmHg 93%
    06:00 +25°C° 0.2 mm 1 mps 717 mmHg 92%
    07:00 +25°C° 0.2 mm 1 mps 718 mmHg 91%
    08:00 +27°C° 0.3 mm 1 mps 718 mmHg 84%
    09:00 +28°C° 0.3 mm 1 mps 718 mmHg 76%
    10:00 +30°C° 0.3 mm 1 mps 718 mmHg 69%
    11:00 +30°C° 1.4 mm 1 mps 718 mmHg 70%
    12:00 +30°C° 1.4 mm 2 mps 717 mmHg 70%
    13:00 +30°C° 1.4 mm 2 mps 716 mmHg 71%
    14:00 +29°C° 1.1 mm 2 mps 716 mmHg 74%
    15:00 +28°C° 1.1 mm 2 mps 715 mmHg 77%
    16:00 +28°C° 1.1 mm 2 mps 715 mmHg 81%
    17:00 +27°C° 1 mm 2 mps 715 mmHg 84%
    18:00 +26°C° 1 mm 2 mps 715 mmHg 88%
    19:00 +25°C° 1 mm 2 mps 716 mmHg 91%
    20:00 +25°C° 0.1 mm 2 mps 716 mmHg 92%
    21:00 +25°C° 0.1 mm 2 mps 717 mmHg 92%
    22:00 +25°C° 0.1 mm 2 mps 717 mmHg 93%
    23:00 +25°C° 0.1 mm 2 mps 717 mmHg 93%

    Tomorrow, 23 April, Tuesday

    Time Temperature Precipitation Wind Pressure Humidity
    00:00 +24°C° 0.1 mm 2 mps 716 mmHg 93%
    01:00 +24°C° 0.1 mm 2 mps 716 mmHg 93%
    02:00 +24°C° 0.3 mm 2 mps 716 mmHg 93%
    03:00 +24°C° 0.3 mm 2 mps 716 mmHg 93%
    04:00 +24°C° 0.3 mm 2 mps 716 mmHg 93%
    05:00 +24°C° 0.3 mm 2 mps 716 mmHg 92%
    06:00 +25°C° 0.3 mm 1 mps 717 mmHg 90%
    07:00 +25°C° 0.3 mm 1 mps 718 mmHg 88%
    08:00 +26°C° 1 mm 1 mps 718 mmHg 84%
    09:00 +27°C° 1 mm 1 mps 718 mmHg 80%
    10:00 +28°C° 1 mm 1 mps 719 mmHg 76%
    11:00 +28°C° 2.1 mm 1 mps 718 mmHg 77%
    12:00 +28°C° 2.1 mm 1 mps 717 mmHg 79%
    13:00 +28°C° 2.1 mm 1 mps 716 mmHg 80%
    14:00 +27°C° 2.2 mm 1 mps 716 mmHg 82%
    15:00 +27°C° 2.2 mm 1 mps 715 mmHg 84%
    16:00 +26°C° 2.2 mm 1 mps 715 mmHg 86%
    17:00 +26°C° 1.7 mm 1 mps 715 mmHg 88%
    18:00 +26°C° 1.7 mm 1 mps 716 mmHg 89%
    19:00 +25°C° 1.7 mm 1 mps 716 mmHg 91%
    20:00 +25°C° 0.4 mm 1 mps 717 mmHg 92%
    21:00 +25°C° 0.4 mm 1 mps 717 mmHg 92%
    22:00 +25°C° 0.4 mm 1 mps 718 mmHg 93%
    23:00 +25°C° 0.3 mm 1 mps 717 mmHg 93%

    Day after tomorrow, 24 April, Wednesday

    Time Temperature Precipitation Wind Pressure Humidity
    00:00 +25°C° 0.3 mm 1 mps 717 mmHg 93%
    01:00 +24°C° 0.3 mm 1 mps 716 mmHg 94%
    02:00 +24°C° 0.3 mm 1 mps 716 mmHg 94%
    03:00 +24°C° 0.3 mm 1 mps 716 mmHg 94%
    04:00 +24°C° 0.3 mm 1 mps 716 mmHg 94%
    05:00 +23°C° 0.5 mm 0 mps 717 mmHg 92%
    06:00 +23°C° 0.5 mm 0 mps 717 mmHg 89%
    07:00 +24°C° 0.5 mm 0 mps 718 mmHg 86%
    08:00 +25°C° 0.3 mm 0 mps 718 mmHg 81%
    09:00 +27°C° 0.3 mm 0 mps 718 mmHg 75%
    10:00 +29°C° 0.3 mm 0 mps 719 mmHg 69%
    11:00 +30°C° 1.6 mm 1 mps 718 mmHg 70%
    12:00 +30°C° 1.6 mm 1 mps 717 mmHg 70%
    13:00 +30°C° 1.6 mm 1 mps 717 mmHg 71%
    14:00 +30°C° 2.4 mm 1 mps 716 mmHg 75%
    15:00 +29°C° 2.4 mm 1 mps 716 mmHg 78%
    16:00 +28°C° 2.4 mm 1 mps 716 mmHg 82%
    17:00 +27°C° 2.9 mm 1 mps 716 mmHg 85%
    18:00 +27°C° 2.9 mm 1 mps 717 mmHg 88%
    19:00 +26°C° 2.9 mm 1 mps 717 mmHg 91%
    20:00 +26°C° 2.6 mm 1 mps 718 mmHg 91%
    21:00 +26°C° 2.6 mm 1 mps 718 mmHg 92%
    22:00 +25°C° 2.6 mm 1 mps 718 mmHg 92%
    23:00 +25°C° 2.1 mm 1 mps 718 mmHg 93%

    25 April, Thursday

    Time Temperature Precipitation Wind Pressure Humidity
    00:00 +23°C° 2.1 mm 0 mps 717 mmHg 93%
    01:00 +23°C° 2.1 mm 0 mps 717 mmHg 93%
    02:00 +23°C° 1.3 mm 0 mps 717 mmHg 93%
    03:00 +23°C° 1.3 mm 0 mps 717 mmHg 92%
    04:00 +23°C° 1.3 mm 0 mps 717 mmHg 92%
    05:00 +23°C° 0.6 mm 0 mps 717 mmHg 91%
    06:00 +23°C° 0.6 mm 0 mps 718 mmHg 90%
    07:00 +23°C° 0.6 mm 0 mps 719 mmHg 88%
    08:00 +26°C° 0.4 mm 1 mps 719 mmHg 85%
    09:00 +27°C° 0.4 mm 1 mps 719 mmHg 82%
    10:00 +28°C° 0.4 mm 1 mps 719 mmHg 79%
    11:00 +28°C° 0.8 mm 2 mps 718 mmHg 77%
    12:00 +29°C° 0.8 mm 2 mps 718 mmHg 74%
    13:00 +30°C° 0.8 mm 2 mps 717 mmHg 72%
    14:00 +29°C° 1.6 mm 1 mps 717 mmHg 75%
    15:00 +29°C° 1.6 mm 1 mps 717 mmHg 78%
    16:00 +28°C° 1.6 mm 1 mps 716 mmHg 81%
    17:00 +27°C° 1.1 mm 1 mps 717 mmHg 84%
    18:00 +27°C° 1.1 mm 1 mps 717 mmHg 86%
    19:00 +26°C° 1.1 mm 1 mps 718 mmHg 89%
    20:00 +26°C° 0.9 mm 1 mps 718 mmHg 89%
    21:00 +26°C° 0.9 mm 1 mps 718 mmHg 90%
    22:00 +25°C° 0.9 mm 1 mps 719 mmHg 90%
    23:00 +25°C° 0.7 mm 1 mps 718 mmHg 91%

    26 April, Friday

    Time Temperature Precipitation Wind Pressure Humidity
    00:00 +25°C° 0.7 mm 1 mps 718 mmHg 91%
    01:00 +23°C° 0.7 mm 0 mps 717 mmHg 92%
    02:00 +23°C° 0.6 mm 0 mps 717 mmHg 92%
    03:00 +23°C° 0.6 mm 0 mps 717 mmHg 92%
    04:00 +22°C° 0.6 mm 0 mps 717 mmHg 92%
    05:00 +23°C° 0.3 mm 0 mps 718 mmHg 89%
    06:00 +26°C° 0.3 mm 1 mps 718 mmHg 86%
    07:00 +26°C° 0.3 mm 1 mps 719 mmHg 84%
    08:00 +27°C° 0.1 mm 1 mps 719 mmHg 78%
    09:00 +28°C° 0.1 mm 2 mps 719 mmHg 73%
    10:00 +30°C° 0.1 mm 2 mps 719 mmHg 68%
    11:00 +30°C° 0.9 mm 2 mps 718 mmHg 67%
    12:00 +30°C° 0.9 mm 2 mps 718 mmHg 67%
    13:00 +31°C° 0.9 mm 1 mps 717 mmHg 66%
    14:00 +30°C° 2 mm 1 mps 717 mmHg 69%
    15:00 +30°C° 2 mm 1 mps 716 mmHg 72%
    16:00 +29°C° 2 mm 1 mps 716 mmHg 75%
    17:00 +28°C° 0.9 mm 1 mps 716 mmHg 79%
    18:00 +27°C° 0.9 mm 1 mps 717 mmHg 82%
    19:00 +26°C° 0.9 mm 1 mps 717 mmHg 86%
    20:00 +26°C° 0.4 mm 1 mps 718 mmHg 87%
    21:00 +26°C° 0.4 mm 1 mps 718 mmHg 88%
    22:00 +26°C° 0.4 mm 1 mps 718 mmHg 89%
    23:00 +25°C° 0.8 mm 1 mps 717 mmHg 90%

    27 April, Saturday

    Time Temperature Precipitation Wind Pressure Humidity
    00:00 +25°C° 0.8 mm 1 mps 717 mmHg 90%
    01:00 +25°C° 0.8 mm 1 mps 717 mmHg 91%
    02:00 +25°C° 0.8 mm 1 mps 717 mmHg 91%
    03:00 +25°C° 0.8 mm 1 mps 717 mmHg 90%
    04:00 +23°C° 0.8 mm 0 mps 717 mmHg 90%
    05:00 +23°C° 0.6 mm 0 mps 717 mmHg 87%
    06:00 +24°C° 0.6 mm 0 mps 718 mmHg 84%
    07:00 +25°C° 0.6 mm 0 mps 718 mmHg 81%
    08:00 +28°C° 0.6 mm 1 mps 718 mmHg 76%
    09:00 +29°C° 0.6 mm 1 mps 718 mmHg 71%
    10:00 +30°C° 0.6 mm 2 mps 718 mmHg 66%
    11:00 +31°C° 0.7 mm 2 mps 718 mmHg 64%
    12:00 +31°C° 0.7 mm 2 mps 717 mmHg 62%
    13:00 +32°C° 0.7 mm 2 mps 716 mmHg 59%
    14:00 +32°C° 0.5 mm 2 mps 716 mmHg 61%
    15:00 +31°C° 0.5 mm 2 mps 716 mmHg 63%
    16:00 +31°C° 0.5 mm 2 mps 715 mmHg 64%
    17:00 +30°C° 0.1 mm 1 mps 716 mmHg 68%
    18:00 +28°C° 0.1 mm 1 mps 716 mmHg 72%
    19:00 +27°C° 0.1 mm 1 mps 717 mmHg 76%
    20:00 +27°C° 0 mm 1 mps 717 mmHg 76%
    21:00 +26°C° 0 mm 1 mps 717 mmHg 77%
    22:00 +24°C° 0 mm 0 mps 717 mmHg 77%
    23:00 +24°C° 0 mm 0 mps 717 mmHg 76%
    Show more